TimeEDT,TemperatureF,Dew PointF,Humidity,Sea Level PressureIn,VisibilityMPH,Wind Direction,Wind SpeedMPH,Gust SpeedMPH,PrecipitationIn,Events,Conditions,WindDirDegrees,DateUTC
12:54 AM,35.1,16.0,46,29.96,10.0,SW,3.5,-,N/A,,Clear,220,2013-04-05 04:54:00
1:54 AM,35.1,16.0,46,29.95,10.0,SW,4.6,-,N/A,,Clear,230,2013-04-05 05:54:00
2:54 AM,35.1,16.0,46,29.94,10.0,SSW,4.6,-,N/A,,Clear,210,2013-04-05 06:54:00
3:54 AM,35.1,17.1,48,29.93,10.0,Calm,Calm,-,N/A,,Clear,0,2013-04-05 07:54:00
4:54 AM,30.9,18.0,59,29.94,10.0,South,3.5,-,N/A,,Clear,190,2013-04-05 08:54:00
5:54 AM,27.0,21.0,78,29.96,10.0,Calm,Calm,-,N/A,,Clear,0,2013-04-05 09:54:00
6:54 AM,32.0,24.1,73,29.98,10.0,Calm,Calm,-,N/A,,Overcast,0,2013-04-05 10:54:00
7:54 AM,36.0,24.1,62,30.00,10.0,Calm,Calm,-,N/A,,Overcast,0,2013-04-05 11:54:00
8:54 AM,39.9,26.1,58,30.02,10.0,North,5.8,-,N/A,,Overcast,350,2013-04-05 12:54:00
9:54 AM,43.0,30.0,60,30.04,9.0,North,6.9,-,N/A,,Partly Cloudy,350,2013-04-05 13:54:00
10:54 AM,46.0,30.0,54,30.04,10.0,North,12.7,-,N/A,,Partly Cloudy,10,2013-04-05 14:54:00
11:54 AM,46.9,30.0,52,30.05,10.0,North,12.7,-,N/A,,Clear,360,2013-04-05 15:54:00
12:54 PM,48.0,28.9,48,30.06,10.0,North,15.0,19.6,N/A,,Clear,360,2013-04-05 16:54:00
1:54 PM,48.0,27.0,44,30.06,10.0,North,15.0,-,N/A,,Clear,350,2013-04-05 17:54:00
2:54 PM,46.9,25.0,42,30.07,10.0,North,16.1,24.2,N/A,,Clear,360,2013-04-05 18:54:00
3:54 PM,46.0,24.1,42,30.07,10.0,North,12.7,-,N/A,,Clear,360,2013-04-05 19:54:00
4:54 PM,45.0,19.9,37,30.09,10.0,North,16.1,21.9,N/A,,Clear,10,2013-04-05 20:54:00
5:54 PM,43.0,16.0,34,30.11,10.0,North,10.4,18.4,N/A,,Clear,350,2013-04-05 21:54:00
6:54 PM,41.0,19.9,43,30.13,10.0,North,9.2,-,N/A,,Clear,360,2013-04-05 22:54:00
7:54 PM,37.9,21.0,51,30.15,10.0,North,9.2,-,N/A,,Clear,10,2013-04-05 23:54:00
8:54 PM,36.0,21.0,55,30.17,10.0,North,8.1,-,N/A,,Clear,10,2013-04-06 00:54:00
9:54 PM,34.0,21.0,59,30.20,10.0,NNE,8.1,-,N/A,,Clear,30,2013-04-06 01:54:00
10:54 PM,30.9,19.9,64,30.22,10.0,NNE,4.6,-,N/A,,Clear,20,2013-04-06 02:54:00
11:54 PM,30.0,18.0,61,30.22,10.0,NE,4.6,-,N/A,,Clear,50,2013-04-06 03:54:00